User: anonymous   Login
Location: Columbia
(38.9520°N, 92.3340°W)
Time: 15:39:04
(UTC-05:00)
Language:

Cosmos 2100 Rocket - Orbit

View from above orbital plane
View from above orbital plane
View from above satellite
View from above satellite

Ground track
Ground track

The orbit data is extracted from the following two-line orbital elements,

1 20805U 90083B   16126.79215381 +.00000086 +00000-0 +72861-4 0  9999
2 20805 082.9387 003.4051 0032000 091.4607 336.8796 13.75795299287117
Epoch (UTC): 05 May 2016 19:00:42
Eccentricity: 0.0032000
inclination: 82.9387°
perigee height: 955 km
apogee height: 1002 km
right ascension of ascending node: 3.4051°
argument of perigee: 91.4607°
revolutions per day: 13.75795299
mean anomaly at epoch: 336.8796°
orbit number at epoch: 28711

The dashed part of the orbit path shows where the satellite is in the earth's shadow,  

DLR